[[{"header":{"parameterUnit":"m.s-1","parameterCategory":2,"la1":30.2992,"la2":30.254,"lo1":-89.0895,"lo2":-89.0443,"dy":0.0025,"dx":0.0025,"nx":19,"ny":19,"refTime":"2026-04-08T21:00:00:Z","depth":"0","parameterNumber":2,"parameterNumberName":"U-component_of_CURRENTS"},"data":[0,0,0,0.2941,0.2941,0.2958,0.2958,0.2986,0.2987,0,0,0,0,0,0,0,0,0,0,0,0.2929,0.2929,0.2941,0.2941,0.2958,0.2958,0.2986,0.2987,0,0,0,0,0,0,0,0,0,0,0,0.2928,0.2929,0.2929,0.2941,0.2958,0.2958,0.2986,0.2969,0,0,0,0,0,0,0,0,0,0,0.2951,0.2943,0.2929,0.2929,0.2942,0.2958,0.2958,0.2968,0.297,0.2983,0,0.2989,0,0.2996,0.2989,0.299,0,0,0,0.2932,0.2942,0.2949,0.2929,0.2942,0.2958,0.2948,0.2969,0.2972,0.2986,0.2989,0.299,0.2997,0.299,0.299,0.3066,0.3067,0,0,0.2931,0.2929,0.2947,0.295,0.2951,0.2947,0.2949,0.2971,0.2974,0.2989,0.2991,0.2997,0.299,0.299,0.3066,0.3066,0,0,0,0.2935,0.2928,0.2935,0.2949,0.2956,0.2948,0.2949,0.2972,0.2975,0.2991,0.2997,0.299,0.2991,0.3065,0.3066,0.3097,0,0,0,0.2933,0.2931,0.2934,0.2933,0.2956,0.2965,0.2951,0.2973,0.2976,0.2997,0.299,0.2991,0.3065,0.3066,0.3095,0.3138,0,0,0,0.2927,0.2931,0.2934,0.2933,0.2946,0.2964,0.2968,0.2974,0.2981,0.299,0.2991,0.3064,0.3065,0.3093,0.3134,0.3189,0,0,0,0.2922,0.2915,0.2934,0.2937,0.2946,0.2973,0.2968,0.2983,0.2992,0.2991,0.3065,0.3066,0.3093,0.3131,0.3186,0.3157,0.3168,0,0,0.2906,0.2913,0.2917,0.2934,0.2957,0.297,0.3007,0.3011,0.3017,0.3055,0.3056,0.3096,0.3134,0.3189,0.3227,0.3236,0,0,0,0.2907,0.2907,0.2919,0.294,0.297,0.3017,0.3023,0.3048,0.3084,0.3031,0.3112,0.3136,0.3169,0.3145,0.3153,0.3095,0.3071,0.3071,0.3071,0.2858,0.2888,0.2895,0.2937,0.2976,0.3046,0.3093,0.3131,0.3114,0.3145,0.3171,0.3254,0.3228,0.3233,0.3174,0.3168,0.3169,0.3169,0.3169,0.2817,0.2811,0.2877,0.2893,0.2976,0.3026,0.3155,0.318,0.327,0.3232,0.3262,0.3193,0.3243,0.3177,0.3171,0.3171,0.317,0.317,0.317,0.2755,0.2758,0.278,0.2832,0.2912,0.3024,0.3141,0.3244,0.3315,0.3359,0.3336,0.3335,0.327,0.3365,0.3366,0.3366,0.3366,0.3367,0.3367,0.2674,0.27,0.2703,0.2777,0.2814,0.2943,0.3139,0.3231,0.3361,0.34,0.34,0.3295,0.3314,0.3299,0.3374,0.3373,0.3372,0.3371,0.3371,0.2584,0.2612,0.2615,0.2639,0.273,0.2777,0.3003,0.32,0.3328,0.3391,0.3373,0.3422,0.3419,0.3412,0.3399,0.3497,0.3497,0.3497,0.3497,0.2519,0.2538,0.2516,0.2527,0.2583,0.2693,0.2756,0.2973,0.3232,0.3317,0.3393,0.3312,0.3309,0.3296,0.3291,0.3274,0.3338,0.3337,0.3337,0.2461,0.2477,0.2421,0.2444,0.2486,0.2558,0.2557,0.2677,0.3072,0.3326,0.3324,0.3331,0.3205,0.3205,0.3173,0.3171,0.3139,0,0]},{"header":{"parameterUnit":"m.s-1","parameterCategory":2,"la1":30.2992,"la2":30.254,"lo1":-89.0895,"lo2":-89.0443,"dy":0.0025,"dx":0.0025,"nx":19,"ny":19,"refTime":"2026-04-08T21:00:00:Z","depth":"0","parameterNumber":3,"parameterNumberName":"V-component_of_CURRENTS"},"data":[0,0,0,0.0151,0.015,0.0107,0.0107,0.0031,0.003,0,0,0,0,0,0,0,0,0,0,0,0.0165,0.0165,0.0151,0.015,0.0107,0.0107,0.0031,0.003,0,0,0,0,0,0,0,0,0,0,0,0.0165,0.0165,0.0165,0.015,0.0108,0.0107,0.0031,0.0066,0,0,0,0,0,0,0,0,0,0,0.0109,0.013,0.0165,0.0165,0.015,0.0108,0.0107,0.0067,0.0063,0.0048,0,0.0049,0,0.0044,0.0026,0.0025,0,0,0,0.0138,0.0133,0.0124,0.0165,0.015,0.0108,0.0123,0.0065,0.0061,0.0043,0.0048,0.0046,0.0042,0.0025,0.0025,0.0032,0.0033,0,0,0.014,0.0151,0.0127,0.0121,0.0149,0.0125,0.0122,0.0063,0.0061,0.0048,0.0044,0.0041,0.0025,0.0024,0.0031,0.0032,0,0,0,0.0155,0.0153,0.0145,0.0124,0.0121,0.0124,0.0121,0.0063,0.0061,0.0043,0.004,0.0024,0.0024,0.0031,0.0032,0.0148,0,0,0,0.0156,0.0163,0.0146,0.0152,0.0123,0.0095,0.0123,0.0065,0.0058,0.004,0.0024,0.0023,0.003,0.0031,0.0143,0.021,0,0,0,0.0165,0.0164,0.0162,0.0153,0.014,0.0096,0.009,0.0063,0.0057,0.0025,0.0023,0.003,0.0031,0.0139,0.0203,0.0256,0,0,0,0.0172,0.0199,0.0163,0.0195,0.0141,0.016,0.009,0.0085,0.0066,0.0024,0.003,0.0032,0.0138,0.0198,0.0251,0.0347,0.0376,0,0,0.0217,0.0205,0.0227,0.0194,0.0243,0.0164,0.0208,0.0143,0.008,0.0044,0.0044,0.0145,0.0202,0.0255,0.0426,0.0453,0,0,0,0.0249,0.0269,0.0277,0.0293,0.0283,0.029,0.0221,0.0191,0.0156,0.0076,0.014,0.0173,0.0202,0.025,0.0271,0.0164,0.0038,0.0038,0.0038,0.0326,0.033,0.0383,0.0389,0.0395,0.0371,0.0368,0.0313,0.0234,0.0235,0.0263,0.038,0.0432,0.045,0.0338,0.0249,0.025,0.025,0.025,0.0423,0.0462,0.0466,0.0515,0.0514,0.0538,0.0508,0.0462,0.0449,0.0362,0.0384,0.0365,0.0481,0.0352,0.0258,0.0256,0.0255,0.0255,0.0254,0.048,0.0504,0.0525,0.06,0.0661,0.0658,0.0741,0.0679,0.0574,0.0595,0.0613,0.0612,0.0501,0.0597,0.0598,0.0598,0.0599,0.0599,0.06,0.0531,0.056,0.063,0.0702,0.0766,0.0861,0.0879,0.0885,0.0844,0.0762,0.0762,0.0541,0.0485,0.0474,0.0608,0.0607,0.0606,0.0605,0.0604,0.0615,0.062,0.0737,0.0807,0.0976,0.1139,0.1139,0.1181,0.1128,0.1132,0.0814,0.0836,0.0807,0.0789,0.0784,0.099,0.099,0.099,0.099,0.0666,0.068,0.0838,0.0977,0.1149,0.1272,0.1467,0.1469,0.1221,0.1062,0.091,0.0835,0.0824,0.0787,0.0769,0.076,0.0955,0.0954,0.0954,0.0731,0.0772,0.0895,0.1027,0.1227,0.1429,0.1634,0.1709,0.1291,0.0934,0.0744,0.0746,0.0608,0.0599,0.0513,0.0497,0.047,0,0]}],[{"header":{"parameterUnit":"m.s-1","parameterCategory":2,"la1":30.2992,"la2":30.254,"lo1":-89.0895,"lo2":-89.0443,"dy":0.0025,"dx":0.0025,"nx":19,"ny":19,"refTime":"2026-04-08T21:00:00:Z","depth":"2","parameterNumber":2,"parameterNumberName":"U-component_of_CURRENTS"},"data":[0,0,0,0.2776,0.2777,0.283,0.283,0.2881,0.2881,0,0,0,0,0,0,0,0,0,0,0,0.2755,0.2755,0.2776,0.2777,0.283,0.283,0.2881,0.2881,0,0,0,0,0,0,0,0,0,0,0,0.2755,0.2755,0.2756,0.2778,0.283,0.283,0.288,0.2843,0,0,0,0,0,0,0,0,0,0,0.2793,0.2778,0.2755,0.2756,0.2778,0.283,0.283,0.2841,0.2845,0.2855,0,0.2871,0,0.2883,0.2885,0.2885,0,0,0,0.2768,0.2775,0.2793,0.2756,0.2779,0.283,0.2803,0.2843,0.2848,0.2861,0.2872,0.2874,0.2884,0.2885,0.2886,0.2972,0.2972,0,0,0.2765,0.2759,0.279,0.2796,0.2802,0.2802,0.2805,0.2846,0.2852,0.2872,0.2875,0.2885,0.2886,0.2886,0.2971,0.2972,0,0,0,0.2763,0.2757,0.2774,0.2794,0.2808,0.2803,0.2807,0.285,0.2858,0.2876,0.2885,0.2886,0.2887,0.2971,0.2972,0.3004,0,0,0,0.2761,0.2757,0.2773,0.2769,0.2808,0.2832,0.2811,0.2854,0.286,0.2885,0.2886,0.2887,0.297,0.2971,0.3002,0.3043,0,0,0,0.2751,0.2756,0.2765,0.2769,0.2797,0.2832,0.2841,0.2856,0.2866,0.2885,0.2888,0.297,0.2971,0.3,0.3039,0.3089,0,0,0,0.2737,0.2745,0.2766,0.2783,0.2797,0.284,0.2841,0.2871,0.2889,0.2886,0.297,0.2971,0.3,0.3037,0.3086,0.3023,0.3031,0,0,0.2734,0.2744,0.2755,0.2774,0.2812,0.2832,0.288,0.2901,0.2911,0.2953,0.2955,0.3003,0.3039,0.3088,0.3093,0.3098,0,0,0,0.2745,0.2753,0.277,0.2799,0.2837,0.289,0.291,0.2938,0.2985,0.2931,0.3018,0.3041,0.3071,0.3027,0.3032,0.2977,0.2977,0.2977,0.2977,0.2714,0.2745,0.2762,0.2807,0.2852,0.2929,0.2979,0.3024,0.3013,0.3048,0.3077,0.3155,0.3108,0.3112,0.3075,0.3075,0.3075,0.3075,0.3075,0.269,0.269,0.2754,0.2781,0.2862,0.292,0.3047,0.3075,0.3167,0.3136,0.3162,0.3076,0.3119,0.3078,0.3078,0.3077,0.3077,0.3077,0.3077,0.2639,0.2643,0.2672,0.2731,0.2816,0.2927,0.3041,0.3144,0.3213,0.3256,0.3211,0.3209,0.3185,0.3263,0.3264,0.3264,0.3264,0.3265,0.3265,0.2564,0.2595,0.2606,0.2686,0.2728,0.2856,0.3046,0.3132,0.3241,0.327,0.3269,0.322,0.3213,0.3198,0.3271,0.327,0.3269,0.3269,0.3268,0.2489,0.2515,0.2527,0.2557,0.2653,0.2693,0.2909,0.3075,0.3194,0.3237,0.3276,0.3274,0.3266,0.326,0.3246,0.3328,0.3328,0.3328,0.3328,0.2429,0.2449,0.2438,0.2455,0.251,0.261,0.2639,0.2781,0.301,0.3078,0.3088,0.2995,0.3,0.2971,0.2972,0.295,0.2955,0.2954,0.2953,0.2378,0.2394,0.2349,0.2377,0.2418,0.2473,0.2424,0.2386,0.2601,0.2931,0.2955,0.3316,0.3204,0.3201,0.3175,0.317,0.3141,0,0]},{"header":{"parameterUnit":"m.s-1","parameterCategory":2,"la1":30.2992,"la2":30.254,"lo1":-89.0895,"lo2":-89.0443,"dy":0.0025,"dx":0.0025,"nx":19,"ny":19,"refTime":"2026-04-08T21:00:00:Z","depth":"2","parameterNumber":3,"parameterNumberName":"V-component_of_CURRENTS"},"data":[0,0,0,0.0211,0.021,0.0162,0.0162,0.0088,0.0088,0,0,0,0,0,0,0,0,0,0,0,0.0227,0.0227,0.0211,0.021,0.0162,0.0162,0.0088,0.0088,0,0,0,0,0,0,0,0,0,0,0,0.0227,0.0227,0.0227,0.021,0.0162,0.0162,0.0089,0.0125,0,0,0,0,0,0,0,0,0,0,0.0172,0.0194,0.0227,0.0227,0.021,0.0162,0.0162,0.0127,0.0123,0.011,0,0.011,0,0.0102,0.0084,0.0083,0,0,0,0.0198,0.0197,0.0186,0.0227,0.0209,0.0162,0.018,0.0124,0.012,0.0105,0.0109,0.0107,0.0101,0.0083,0.0083,0.0084,0.0085,0,0,0.0201,0.0214,0.0189,0.0183,0.0207,0.0182,0.0179,0.0122,0.012,0.0109,0.0105,0.01,0.0083,0.0082,0.0084,0.0084,0,0,0,0.0216,0.0216,0.0205,0.0186,0.0181,0.0181,0.0178,0.0122,0.012,0.0104,0.0099,0.0083,0.0082,0.0083,0.0084,0.0188,0,0,0,0.0217,0.0225,0.0207,0.0213,0.0183,0.0153,0.018,0.0124,0.0117,0.01,0.0082,0.0081,0.0083,0.0083,0.0184,0.0248,0,0,0,0.0227,0.0226,0.0224,0.0214,0.0199,0.0154,0.0148,0.0122,0.0114,0.0083,0.0081,0.0082,0.0083,0.0181,0.0241,0.0283,0,0,0,0.0237,0.0256,0.0225,0.0249,0.0199,0.021,0.0148,0.0138,0.0119,0.0082,0.0083,0.0084,0.018,0.0237,0.0279,0.035,0.0375,0,0,0.0271,0.026,0.0278,0.0249,0.0288,0.0216,0.025,0.0189,0.0131,0.0097,0.0097,0.0186,0.0241,0.0282,0.0415,0.0438,0,0,0,0.0296,0.0313,0.0318,0.033,0.0318,0.0323,0.0258,0.0229,0.0195,0.0126,0.0179,0.0211,0.0234,0.0267,0.0286,0.0089,0.0089,0.0089,0.0089,0.0358,0.0362,0.0407,0.0412,0.0416,0.0392,0.0386,0.0335,0.0263,0.0262,0.0291,0.039,0.0427,0.0441,0.0273,0.0274,0.0274,0.0274,0.0275,0.0439,0.0474,0.048,0.0521,0.0522,0.0541,0.0511,0.0468,0.0453,0.0377,0.0393,0.037,0.0468,0.0283,0.0281,0.028,0.0279,0.0279,0.0278,0.0489,0.0511,0.053,0.0599,0.0655,0.0651,0.0725,0.0668,0.0567,0.0584,0.0587,0.0585,0.0458,0.0583,0.0583,0.0584,0.0584,0.0585,0.0585,0.0534,0.056,0.0625,0.0691,0.0752,0.084,0.0855,0.0855,0.0804,0.0721,0.072,0.0493,0.0483,0.0475,0.0592,0.0591,0.059,0.0589,0.0589,0.0607,0.0615,0.0723,0.0788,0.0947,0.109,0.1088,0.1106,0.1053,0.1042,0.0784,0.0777,0.0749,0.0733,0.073,0.0906,0.0906,0.0906,0.0907,0.0654,0.0666,0.0816,0.0946,0.1105,0.1212,0.1362,0.1321,0.1157,0.1019,0.1014,0.0961,0.0946,0.0924,0.0903,0.0901,0.1122,0.1123,0.1123,0.0712,0.0752,0.0867,0.0992,0.1176,0.135,0.1494,0.1446,0.1188,0.1127,0.1012,0.0929,0.0833,0.0817,0.076,0.0737,0.0723,0,0]}],[{"header":{"parameterUnit":"m.s-1","parameterCategory":2,"la1":30.2992,"la2":30.254,"lo1":-89.0895,"lo2":-89.0443,"dy":0.0025,"dx":0.0025,"nx":19,"ny":19,"refTime":"2026-04-08T21:00:00:Z","depth":"4","parameterNumber":2,"parameterNumberName":"U-component_of_CURRENTS"},"data":[0,0,0,0.1962,0.1966,0.2142,0.2142,0.2279,0.228,0,0,0,0,0,0,0,0,0,0,0,0.191,0.1912,0.1962,0.1966,0.2142,0.2142,0.2278,0.228,0,0,0,0,0,0,0,0,0,0,0,0.191,0.1912,0.1914,0.1967,0.2141,0.2142,0.2278,0.2167,0,0,0,0,0,0,0,0,0,0,0.2008,0.1978,0.1911,0.1914,0.1968,0.2141,0.2142,0.2163,0.2174,0.2175,0,0.2219,0,0.2249,0.2287,0.2287,0,0,0,0.1964,0.1969,0.2011,0.1914,0.197,0.2141,0.2062,0.217,0.2182,0.2189,0.2221,0.2227,0.2251,0.2288,0.2288,0.2417,0.2418,0,0,0.1954,0.1943,0.2003,0.202,0.2037,0.2056,0.2067,0.2178,0.2201,0.2222,0.2231,0.2254,0.2288,0.2289,0.2417,0.2417,0,0,0,0.1928,0.1936,0.1978,0.2013,0.2051,0.2061,0.2074,0.2197,0.221,0.2232,0.2255,0.2289,0.229,0.2416,0.2417,0.2457,0,0,0,0.1922,0.1921,0.1973,0.1968,0.205,0.2139,0.209,0.2203,0.2216,0.2255,0.2289,0.2291,0.2415,0.2416,0.2455,0.2486,0,0,0,0.1898,0.1918,0.1944,0.1967,0.2043,0.2138,0.2159,0.2207,0.223,0.2287,0.2292,0.2415,0.2416,0.2452,0.2482,0.2524,0,0,0,0.1871,0.1906,0.1944,0.1997,0.2041,0.2135,0.2159,0.2242,0.2295,0.229,0.2415,0.2417,0.2452,0.248,0.2522,0.221,0,0,0,0.1886,0.1908,0.1935,0.1973,0.2051,0.2109,0.2202,0.2283,0.2313,0.237,0.2375,0.2456,0.2482,0.2524,0.2296,0,0,0,0,0.1919,0.1946,0.1976,0.2041,0.2111,0.2202,0.2277,0.2323,0.2416,0.2353,0.2473,0.2489,0.2514,0.2325,0.2424,0.2423,0.2423,0.2423,0.2423,0.1909,0.1951,0.2002,0.2073,0.2148,0.2271,0.235,0.2428,0.2442,0.2498,0.2534,0.2612,0.2414,0.254,0.254,0.2541,0.2541,0.2541,0.2541,0.1905,0.1921,0.2014,0.2082,0.2191,0.2291,0.2438,0.2489,0.2607,0.2594,0.2615,0.2395,0.2545,0.2545,0.2544,0.2543,0.2543,0.2543,0.2543,0.1858,0.1869,0.1942,0.2051,0.2182,0.2323,0.2441,0.2569,0.2655,0.2701,0.2506,0.2653,0.2636,0.2718,0.2718,0.2719,0.2719,0.2719,0.2719,0.1763,0.1832,0.189,0.2023,0.2103,0.2253,0.2464,0.2532,0.2652,0.2538,0.2729,0.2672,0.2667,0.2648,0.2725,0.2724,0.2723,0.2722,0.2722,0.1679,0.1736,0.1798,0.1873,0.2029,0.2101,0.2334,0.2394,0.2444,0.2415,0.244,0.2452,0.2414,0.2415,0.2385,0.2387,0.2384,0.238,0,0.1611,0.1646,0.171,0.1775,0.1837,0.1997,0.1988,0.2104,0.2216,0.2141,0.2457,0.2483,0.249,0.2444,0.244,0.2401,0,0,0,0.1557,0.159,0.1595,0.1679,0.1725,0.1806,0.1971,0.1935,0.2199,0.2157,0.2287,0.2311,0.2559,0.274,0.2712,0.2705,0.2673,0,0]},{"header":{"parameterUnit":"m.s-1","parameterCategory":2,"la1":30.2992,"la2":30.254,"lo1":-89.0895,"lo2":-89.0443,"dy":0.0025,"dx":0.0025,"nx":19,"ny":19,"refTime":"2026-04-08T21:00:00:Z","depth":"4","parameterNumber":3,"parameterNumberName":"V-component_of_CURRENTS"},"data":[0,0,0,0.0215,0.0215,0.0187,0.0187,0.0133,0.0133,0,0,0,0,0,0,0,0,0,0,0,0.0226,0.0226,0.0215,0.0215,0.0187,0.0187,0.0133,0.0133,0,0,0,0,0,0,0,0,0,0,0,0.0226,0.0226,0.0226,0.0215,0.0187,0.0187,0.0133,0.0157,0,0,0,0,0,0,0,0,0,0,0.0185,0.0203,0.0226,0.0226,0.0215,0.0187,0.0187,0.0158,0.0155,0.0143,0,0.0147,0,0.0142,0.013,0.0129,0,0,0,0.0206,0.0205,0.0197,0.0226,0.0215,0.0188,0.0197,0.0156,0.0153,0.014,0.0146,0.0144,0.0141,0.0129,0.0129,0.0125,0.0125,0,0,0.0207,0.0218,0.02,0.0196,0.0217,0.0198,0.0196,0.0155,0.0155,0.0146,0.0143,0.014,0.0129,0.0129,0.0125,0.0125,0,0,0,0.0218,0.0219,0.0213,0.0198,0.0196,0.0198,0.0196,0.0157,0.0155,0.0142,0.0139,0.0129,0.0128,0.0124,0.0125,0.0206,0,0,0,0.0218,0.0226,0.0214,0.0219,0.0198,0.0179,0.0199,0.0158,0.0153,0.014,0.0129,0.0128,0.0124,0.0124,0.0203,0.0253,0,0,0,0.0226,0.0227,0.0226,0.022,0.0212,0.018,0.0175,0.0157,0.0152,0.0129,0.0127,0.0124,0.0124,0.02,0.0248,0.0274,0,0,0,0.0232,0.0245,0.0227,0.0245,0.0212,0.022,0.0176,0.017,0.0157,0.0128,0.0124,0.0125,0.0199,0.0245,0.0271,0.0287,0,0,0,0.0253,0.0248,0.026,0.0243,0.0272,0.0223,0.0248,0.0206,0.0162,0.0134,0.0134,0.0204,0.0248,0.0273,0.0329,0,0,0,0,0.027,0.0283,0.0287,0.03,0.0293,0.03,0.0255,0.0234,0.0208,0.0159,0.0196,0.0221,0.0235,0.0234,0.0128,0.0128,0.0128,0.0128,0.0128,0.0309,0.0314,0.0348,0.0357,0.0363,0.035,0.0347,0.0309,0.0257,0.0256,0.0281,0.035,0.0352,0.0264,0.0264,0.0265,0.0265,0.0265,0.0266,0.036,0.0385,0.0401,0.0434,0.0443,0.0462,0.044,0.041,0.0397,0.0342,0.0351,0.0313,0.0273,0.0272,0.0271,0.027,0.0269,0.0269,0.0268,0.0389,0.0405,0.0429,0.0491,0.0544,0.055,0.0606,0.0566,0.0486,0.0497,0.0473,0.0403,0.0403,0.0494,0.0495,0.0495,0.0495,0.0496,0.0496,0.041,0.0437,0.0494,0.0558,0.0616,0.069,0.0708,0.0699,0.0629,0.0578,0.0523,0.0427,0.0419,0.0415,0.0501,0.05,0.05,0.0499,0.0499,0.0446,0.0464,0.0554,0.0616,0.0753,0.0806,0.0833,0.0794,0.0777,0.0724,0.0604,0.0597,0.0568,0.0557,0.0556,0.0688,0.0688,0.0689,0,0.0471,0.0486,0.0611,0.0722,0.0835,0.0879,0.0897,0.0876,0.0767,0.075,0.0747,0.0613,0.0607,0.0573,0.0564,0.0564,0,0,0,0.0503,0.054,0.063,0.074,0.0868,0.0896,0.0903,0.0873,0.0792,0.0778,0.0703,0.0699,0.0619,0.0517,0.0456,0.0447,0.0437,0,0]}]]